Year,Month,Day,Hour,Minute,Value (Times are PST for temperature in C)
2016,09,16,00,00,10.70
2016,09,16,00,01,10.70
2016,09,16,00,02,10.70
2016,09,16,00,03,10.70
2016,09,16,00,04,10.70
2016,09,16,00,05,10.70
2016,09,16,00,06,10.70
2016,09,16,00,07,10.70
2016,09,16,00,08,10.70
2016,09,16,00,09,10.70
2016,09,16,00,10,10.70
2016,09,16,00,11,10.70
2016,09,16,00,12,10.60
2016,09,16,00,13,10.60
2016,09,16,00,14,10.60
2016,09,16,00,15,10.60
2016,09,16,00,16,10.60
2016,09,16,00,17,10.60
2016,09,16,00,18,10.60
2016,09,16,00,19,10.60
2016,09,16,00,20,10.60
2016,09,16,00,21,10.60
2016,09,16,00,22,10.60
2016,09,16,00,23,10.60
2016,09,16,00,24,10.60
2016,09,16,00,25,10.60
2016,09,16,00,26,10.60
2016,09,16,00,27,10.60
2016,09,16,00,28,10.60
2016,09,16,00,29,10.60
2016,09,16,00,30,10.60
2016,09,16,00,31,10.60
2016,09,16,00,32,10.60
2016,09,16,00,33,10.60
2016,09,16,00,34,10.60
2016,09,16,00,35,10.60
2016,09,16,00,36,10.60
2016,09,16,00,37,10.60
2016,09,16,00,38,10.60
2016,09,16,00,39,10.60
2016,09,16,00,40,10.60
2016,09,16,00,41,10.60
2016,09,16,00,42,10.60
2016,09,16,00,43,10.60
2016,09,16,00,44,10.60
2016,09,16,00,45,10.60
2016,09,16,00,46,10.70
2016,09,16,00,47,10.70
2016,09,16,00,48,10.70
2016,09,16,00,49,10.70
2016,09,16,00,50,10.70
2016,09,16,00,51,10.70
2016,09,16,00,52,10.70
2016,09,16,00,53,10.70
2016,09,16,00,54,10.80
2016,09,16,00,55,10.80
2016,09,16,00,56,10.80
2016,09,16,00,57,10.80
2016,09,16,00,58,10.80
2016,09,16,00,59,10.80
2016,09,16,01,00,10.80
2016,09,16,01,01,10.80
2016,09,16,01,02,10.80
2016,09,16,01,03,10.80
2016,09,16,01,04,10.90
2016,09,16,01,05,10.90
2016,09,16,01,06,10.90
2016,09,16,01,07,10.90
2016,09,16,01,08,10.90
2016,09,16,01,09,10.90
2016,09,16,01,10,11.00
2016,09,16,01,11,11.00
2016,09,16,01,12,11.00
2016,09,16,01,13,11.00
2016,09,16,01,14,11.00
2016,09,16,01,15,11.00
2016,09,16,01,16,11.00
2016,09,16,01,17,11.10
2016,09,16,01,18,11.10
2016,09,16,01,19,11.10
2016,09,16,01,20,11.10
2016,09,16,01,21,11.10
2016,09,16,01,22,11.10
2016,09,16,01,23,11.10
2016,09,16,01,24,11.10
2016,09,16,01,25,11.10
2016,09,16,01,26,11.10
2016,09,16,01,27,11.10
2016,09,16,01,28,11.10
2016,09,16,01,29,11.10
2016,09,16,01,30,11.10
2016,09,16,01,31,11.10
2016,09,16,01,32,11.10
2016,09,16,01,33,11.10
2016,09,16,01,34,11.10
2016,09,16,01,35,11.10
2016,09,16,01,36,11.10
2016,09,16,01,37,11.10
2016,09,16,01,38,11.10
2016,09,16,01,39,11.10
2016,09,16,01,40,11.10
2016,09,16,01,41,11.10
2016,09,16,01,42,11.10
2016,09,16,01,43,11.10
2016,09,16,01,44,11.10
2016,09,16,01,45,11.10
2016,09,16,01,46,11.10
2016,09,16,01,47,11.10
2016,09,16,01,48,11.10
2016,09,16,01,49,11.10
2016,09,16,01,50,11.10
2016,09,16,01,51,11.10
2016,09,16,01,52,11.10
2016,09,16,01,53,11.10
2016,09,16,01,54,11.00
2016,09,16,01,55,11.00
2016,09,16,01,56,11.00
2016,09,16,01,57,11.00
2016,09,16,01,58,11.00
2016,09,16,01,59,11.00
2016,09,16,02,00,10.90
2016,09,16,02,01,10.90
2016,09,16,02,02,10.90
2016,09,16,02,03,10.90
2016,09,16,02,04,10.90
2016,09,16,02,05,10.90
2016,09,16,02,06,10.80
2016,09,16,02,07,10.80
2016,09,16,02,08,10.80
2016,09,16,02,09,10.80
2016,09,16,02,10,10.80
2016,09,16,02,11,10.80
2016,09,16,02,12,10.70
2016,09,16,02,13,10.70
2016,09,16,02,14,10.70
2016,09,16,02,15,10.70
2016,09,16,02,16,10.70
2016,09,16,02,17,10.70
2016,09,16,02,18,10.70
2016,09,16,02,19,10.70
2016,09,16,02,20,10.70
2016,09,16,02,21,10.70
2016,09,16,02,22,10.60
2016,09,16,02,23,10.60
2016,09,16,02,24,10.60
2016,09,16,02,25,10.60
2016,09,16,02,26,10.60
2016,09,16,02,27,10.60
2016,09,16,02,28,10.60
2016,09,16,02,29,10.60
2016,09,16,02,30,10.60
2016,09,16,02,31,10.60
2016,09,16,02,32,10.60
2016,09,16,02,33,10.60
2016,09,16,02,34,10.60
2016,09,16,02,35,10.60
2016,09,16,02,36,10.60
2016,09,16,02,37,10.60
2016,09,16,02,38,10.60
2016,09,16,02,39,10.60
2016,09,16,02,40,10.60
2016,09,16,02,41,10.60
2016,09,16,02,42,10.60
2016,09,16,02,43,10.60
2016,09,16,02,44,10.60
2016,09,16,02,45,10.70
2016,09,16,02,46,10.70
2016,09,16,02,47,10.70
2016,09,16,02,48,10.70
2016,09,16,02,49,10.70
2016,09,16,02,50,10.70
2016,09,16,02,51,10.70
2016,09,16,02,52,10.70
2016,09,16,02,53,10.80
2016,09,16,02,54,10.80
2016,09,16,02,55,10.80
2016,09,16,02,56,10.80
2016,09,16,02,57,10.80
2016,09,16,02,58,10.80
2016,09,16,02,59,10.80
2016,09,16,03,00,10.80
2016,09,16,03,01,10.80
2016,09,16,03,02,10.80
2016,09,16,03,03,10.80
2016,09,16,03,04,10.80
2016,09,16,03,05,10.90
2016,09,16,03,06,10.90
2016,09,16,03,07,10.90
2016,09,16,03,08,10.90
2016,09,16,03,09,10.90
2016,09,16,03,10,10.90
2016,09,16,03,11,10.90
2016,09,16,03,12,10.90
2016,09,16,03,13,10.90
2016,09,16,03,14,10.90
2016,09,16,03,15,10.90
2016,09,16,03,16,10.90
2016,09,16,03,17,10.90
2016,09,16,03,18,10.90
2016,09,16,03,19,11.00
2016,09,16,03,20,11.00
2016,09,16,03,21,11.00
2016,09,16,03,22,11.00
2016,09,16,03,23,11.00
2016,09,16,03,24,11.00
2016,09,16,03,25,11.10
2016,09,16,03,26,11.10
2016,09,16,03,27,11.10
2016,09,16,03,28,11.10
2016,09,16,03,29,11.10
2016,09,16,03,30,11.10
2016,09,16,03,31,11.10
2016,09,16,03,32,11.10
2016,09,16,03,33,11.10
2016,09,16,03,34,11.10
2016,09,16,03,35,11.10
2016,09,16,03,36,11.10
2016,09,16,03,37,11.10
2016,09,16,03,38,11.10
2016,09,16,03,39,11.10
2016,09,16,03,40,11.20
2016,09,16,03,41,11.20
2016,09,16,03,42,11.20
2016,09,16,03,43,11.20
2016,09,16,03,44,11.20
2016,09,16,03,45,11.20
2016,09,16,03,46,11.20
2016,09,16,03,47,11.20
2016,09,16,03,48,11.20
2016,09,16,03,49,11.20
2016,09,16,03,50,11.20
2016,09,16,03,51,11.20
2016,09,16,03,52,11.20
2016,09,16,03,53,11.30
2016,09,16,03,54,11.30
2016,09,16,03,55,11.30
2016,09,16,03,56,11.30
2016,09,16,03,57,11.30
2016,09,16,03,58,11.30
2016,09,16,03,59,11.30
2016,09,16,04,00,11.30
2016,09,16,04,01,11.30
2016,09,16,04,02,11.30
2016,09,16,04,03,11.30
2016,09,16,04,04,11.30
2016,09,16,04,05,11.30
2016,09,16,04,06,11.30
2016,09,16,04,07,11.30
2016,09,16,04,08,11.30
2016,09,16,04,09,11.30
2016,09,16,04,10,11.30
2016,09,16,04,11,11.30
2016,09,16,04,12,11.30
2016,09,16,04,13,11.30
2016,09,16,04,14,11.30
2016,09,16,04,15,11.30
2016,09,16,04,16,11.30
2016,09,16,04,17,11.30
2016,09,16,04,18,11.30
2016,09,16,04,19,11.30
2016,09,16,04,20,11.30
2016,09,16,04,21,11.30
2016,09,16,04,22,11.30
2016,09,16,04,23,11.30
2016,09,16,04,24,11.30
2016,09,16,04,25,11.30
2016,09,16,04,26,11.30
2016,09,16,04,27,11.30
2016,09,16,04,28,11.30
2016,09,16,04,29,11.30
2016,09,16,04,30,11.30
2016,09,16,04,31,11.30
2016,09,16,04,32,11.30
2016,09,16,04,33,11.30
2016,09,16,04,34,11.30
2016,09,16,04,35,11.40
2016,09,16,04,36,11.40
2016,09,16,04,37,11.40
2016,09,16,04,38,11.40
2016,09,16,04,39,11.40
2016,09,16,04,40,11.40
2016,09,16,04,41,11.40
2016,09,16,04,42,11.40
2016,09,16,04,43,11.40
2016,09,16,04,44,11.40
2016,09,16,04,45,11.40
2016,09,16,04,46,11.40
2016,09,16,04,47,11.40
2016,09,16,04,48,11.40
2016,09,16,04,49,11.40
2016,09,16,04,50,11.40
2016,09,16,04,51,11.40
2016,09,16,04,52,11.30
2016,09,16,04,53,11.30
2016,09,16,04,54,11.30
2016,09,16,04,55,11.30
2016,09,16,04,56,11.30
2016,09,16,04,57,11.30
2016,09,16,04,58,11.30
2016,09,16,04,59,11.30
2016,09,16,05,00,11.30
2016,09,16,05,01,11.30
2016,09,16,05,02,11.30
2016,09,16,05,03,11.20
2016,09,16,05,04,11.20
2016,09,16,05,05,11.20
2016,09,16,05,06,11.20
2016,09,16,05,07,11.20
2016,09,16,05,08,11.20
2016,09,16,05,09,11.20
2016,09,16,05,10,11.10
2016,09,16,05,11,11.10
2016,09,16,05,12,11.10
2016,09,16,05,13,11.10
2016,09,16,05,14,11.10
2016,09,16,05,15,11.10
2016,09,16,05,16,11.10
2016,09,16,05,17,11.00
2016,09,16,05,18,11.00
2016,09,16,05,19,11.00
2016,09,16,05,20,11.00
2016,09,16,05,21,11.00
2016,09,16,05,22,11.00
2016,09,16,05,23,10.90
2016,09,16,05,24,10.90
2016,09,16,05,25,10.90
2016,09,16,05,26,10.90
2016,09,16,05,27,10.90
2016,09,16,05,28,10.90
2016,09,16,05,29,10.90
2016,09,16,05,30,10.90
2016,09,16,05,31,10.90
2016,09,16,05,32,10.90
2016,09,16,05,33,10.80
2016,09,16,05,34,10.80
2016,09,16,05,35,10.80
2016,09,16,05,36,10.80
2016,09,16,05,37,10.80
2016,09,16,05,38,10.80
2016,09,16,05,39,10.80
2016,09,16,05,40,10.70
2016,09,16,05,41,10.70
2016,09,16,05,42,10.70
2016,09,16,05,43,10.70
2016,09,16,05,44,10.70
2016,09,16,05,45,10.70
2016,09,16,05,46,10.60
2016,09,16,05,47,10.60
2016,09,16,05,48,10.60
2016,09,16,05,49,10.60
2016,09,16,05,50,10.60
2016,09,16,05,51,10.60
2016,09,16,05,52,10.60
2016,09,16,05,53,10.60
2016,09,16,05,54,10.60
2016,09,16,05,55,10.60
2016,09,16,05,56,10.60
2016,09,16,05,57,10.60
2016,09,16,05,58,10.60
2016,09,16,05,59,10.60
2016,09,16,06,00,10.50
2016,09,16,06,01,10.50
2016,09,16,06,02,10.50
2016,09,16,06,03,10.50
2016,09,16,06,04,10.50
2016,09,16,06,05,10.50
2016,09,16,06,06,10.50
2016,09,16,06,07,10.50
2016,09,16,06,08,10.50
2016,09,16,06,09,10.50
2016,09,16,06,10,10.50
2016,09,16,06,11,10.40
2016,09,16,06,12,10.40
2016,09,16,06,13,10.40
2016,09,16,06,14,10.40
2016,09,16,06,15,10.40
2016,09,16,06,16,10.40
2016,09,16,06,17,10.40
2016,09,16,06,18,10.40
2016,09,16,06,19,10.40
2016,09,16,06,20,10.50
2016,09,16,06,21,10.50
2016,09,16,06,22,10.50
2016,09,16,06,23,10.50
2016,09,16,06,24,10.50
2016,09,16,06,25,10.50
2016,09,16,06,26,10.50
2016,09,16,06,27,10.60
2016,09,16,06,28,10.60
2016,09,16,06,29,10.60
2016,09,16,06,30,10.60
2016,09,16,06,31,10.60
2016,09,16,06,32,10.60
2016,09,16,06,33,10.60
2016,09,16,06,34,10.60
2016,09,16,06,35,10.60
2016,09,16,06,36,10.60
2016,09,16,06,37,10.70
2016,09,16,06,38,10.70
2016,09,16,06,39,10.70
2016,09,16,06,40,10.70
2016,09,16,06,41,10.70
2016,09,16,06,42,10.70
2016,09,16,06,43,10.70
2016,09,16,06,44,10.70
2016,09,16,06,45,10.70
2016,09,16,06,46,10.70
2016,09,16,06,47,10.70
2016,09,16,06,48,10.70
2016,09,16,06,49,10.70
2016,09,16,06,50,10.70
2016,09,16,06,51,10.70
2016,09,16,06,52,10.70
2016,09,16,06,53,10.70
2016,09,16,06,54,10.70
2016,09,16,06,55,10.80
2016,09,16,06,56,10.80
2016,09,16,06,57,10.80
2016,09,16,06,58,10.80
2016,09,16,06,59,10.80
2016,09,16,07,00,10.80
2016,09,16,07,01,10.80
2016,09,16,07,02,10.80
2016,09,16,07,03,10.80
2016,09,16,07,04,10.80
2016,09,16,07,05,10.80
2016,09,16,07,06,10.80
2016,09,16,07,07,10.80
2016,09,16,07,08,10.80
2016,09,16,07,09,10.80
2016,09,16,07,10,10.80
2016,09,16,07,11,10.80
2016,09,16,07,12,10.80
2016,09,16,07,13,10.80
2016,09,16,07,14,10.80
2016,09,16,07,15,10.80
2016,09,16,07,16,10.90
2016,09,16,07,17,10.90
2016,09,16,07,18,10.90
2016,09,16,07,19,10.90
2016,09,16,07,20,10.90
2016,09,16,07,21,10.90
2016,09,16,07,22,10.90
2016,09,16,07,23,10.90
2016,09,16,07,24,11.00
2016,09,16,07,25,11.00
2016,09,16,07,26,11.00
2016,09,16,07,27,11.00
2016,09,16,07,28,11.00
2016,09,16,07,29,11.10
2016,09,16,07,30,11.10
2016,09,16,07,31,11.10
2016,09,16,07,32,11.10
2016,09,16,07,33,11.10
2016,09,16,07,34,11.20
2016,09,16,07,35,11.20
2016,09,16,07,36,11.20
2016,09,16,07,37,11.20
2016,09,16,07,38,11.20
2016,09,16,07,39,11.20
2016,09,16,07,40,11.20
2016,09,16,07,41,11.20
2016,09,16,07,42,11.30
2016,09,16,07,43,11.30
2016,09,16,07,44,11.30
2016,09,16,07,45,11.30
2016,09,16,07,46,11.30
2016,09,16,07,47,11.30
2016,09,16,07,48,11.30
2016,09,16,07,49,11.40
2016,09,16,07,50,11.40
2016,09,16,07,51,11.40
2016,09,16,07,52,11.40
2016,09,16,07,53,11.40
2016,09,16,07,54,11.40
2016,09,16,07,55,11.50
2016,09,16,07,56,11.50
2016,09,16,07,57,11.50
2016,09,16,07,58,11.60
2016,09,16,07,59,11.60
2016,09,16,08,00,11.60
2016,09,16,08,01,11.60
2016,09,16,08,02,11.60
2016,09,16,08,03,11.60
2016,09,16,08,04,11.70
2016,09,16,08,05,11.70
2016,09,16,08,06,11.70
2016,09,16,08,07,11.70
2016,09,16,08,08,11.70
2016,09,16,08,09,11.80
2016,09,16,08,10,11.80
2016,09,16,08,11,11.80
2016,09,16,08,12,11.80
2016,09,16,08,13,11.80
2016,09,16,08,14,11.80
2016,09,16,08,15,11.80
2016,09,16,08,16,11.90
2016,09,16,08,17,11.90
2016,09,16,08,18,11.90
2016,09,16,08,19,11.90
2016,09,16,08,20,11.90
2016,09,16,08,21,12.00
2016,09,16,08,22,12.00
2016,09,16,08,23,12.00
2016,09,16,08,24,12.10
2016,09,16,08,25,12.10
2016,09,16,08,26,12.10
2016,09,16,08,27,12.10
2016,09,16,08,28,12.20
2016,09,16,08,29,12.20
2016,09,16,08,30,12.20
2016,09,16,08,31,12.20
2016,09,16,08,32,12.30
2016,09,16,08,33,12.30
2016,09,16,08,34,12.30
2016,09,16,08,35,12.40
2016,09,16,08,36,12.40
2016,09,16,08,37,12.40
2016,09,16,08,38,12.50
2016,09,16,08,39,12.50
2016,09,16,08,40,12.60
2016,09,16,08,41,12.60
2016,09,16,08,42,12.70
2016,09,16,08,43,12.70
2016,09,16,08,44,12.70
2016,09,16,08,45,12.80
2016,09,16,08,46,12.80
2016,09,16,08,47,12.80
2016,09,16,08,48,12.90
2016,09,16,08,49,12.90
2016,09,16,08,50,13.00
2016,09,16,08,51,13.00
2016,09,16,08,52,13.10
2016,09,16,08,53,13.10
2016,09,16,08,54,13.20
2016,09,16,08,55,13.20
2016,09,16,08,56,13.30
2016,09,16,08,57,13.30
2016,09,16,08,58,13.40
2016,09,16,08,59,13.40
2016,09,16,09,00,13.50
2016,09,16,09,01,13.60
2016,09,16,09,02,13.60
2016,09,16,09,03,13.70
2016,09,16,09,04,13.70
2016,09,16,09,05,13.80
2016,09,16,09,06,13.80
2016,09,16,09,07,13.80
2016,09,16,09,08,13.90
2016,09,16,09,09,13.90
2016,09,16,09,10,14.00
2016,09,16,09,11,14.10
2016,09,16,09,12,14.10
2016,09,16,09,13,14.20
2016,09,16,09,14,14.20
2016,09,16,09,15,14.30
2016,09,16,09,16,14.30
2016,09,16,09,17,14.40
2016,09,16,09,18,14.50
2016,09,16,09,19,14.50
2016,09,16,09,20,14.60
2016,09,16,09,21,14.70
2016,09,16,09,22,14.70
2016,09,16,09,23,14.70
2016,09,16,09,24,14.70
2016,09,16,09,25,14.80
2016,09,16,09,26,14.80
2016,09,16,09,27,14.90
2016,09,16,09,28,14.90
2016,09,16,09,29,15.00
2016,09,16,09,30,15.00
2016,09,16,09,31,15.00
2016,09,16,09,32,15.00
2016,09,16,09,33,15.00
2016,09,16,09,34,15.00
2016,09,16,09,35,15.00
2016,09,16,09,36,15.00
2016,09,16,09,37,15.00
2016,09,16,09,38,15.00
2016,09,16,09,39,15.00
2016,09,16,09,40,15.00
2016,09,16,09,41,15.00
2016,09,16,09,42,15.00
2016,09,16,09,43,15.00
2016,09,16,09,44,15.10
2016,09,16,09,45,15.10
2016,09,16,09,46,15.20
2016,09,16,09,47,15.20
2016,09,16,09,48,15.20
2016,09,16,09,49,15.10
2016,09,16,09,50,15.10
2016,09,16,09,51,15.10
2016,09,16,09,52,15.10
2016,09,16,09,53,15.10
2016,09,16,09,54,15.20
2016,09,16,09,55,15.20
2016,09,16,09,56,15.20
2016,09,16,09,57,15.30
2016,09,16,09,58,15.30
2016,09,16,09,59,15.30
2016,09,16,10,00,15.30
2016,09,16,10,01,15.40
2016,09,16,10,02,15.40
2016,09,16,10,03,15.40
2016,09,16,10,04,15.50
2016,09,16,10,05,15.50
2016,09,16,10,06,15.60
2016,09,16,10,07,15.60
2016,09,16,10,08,15.60
2016,09,16,10,09,15.60
2016,09,16,10,10,15.60
2016,09,16,10,11,15.60
2016,09,16,10,12,15.60
2016,09,16,10,13,15.70
2016,09,16,10,14,15.70
2016,09,16,10,15,15.80
2016,09,16,10,16,15.80
2016,09,16,10,17,15.80
2016,09,16,10,18,15.90
2016,09,16,10,19,15.90
2016,09,16,10,20,15.90
2016,09,16,10,21,16.00
2016,09,16,10,22,16.00
2016,09,16,10,23,15.90
2016,09,16,10,24,15.90
2016,09,16,10,25,15.90
2016,09,16,10,26,15.90
2016,09,16,10,27,15.90
2016,09,16,10,28,15.90
2016,09,16,10,29,15.90
2016,09,16,10,30,15.90
2016,09,16,10,31,16.00
2016,09,16,10,32,16.00
2016,09,16,10,33,16.00
2016,09,16,10,34,16.00
2016,09,16,10,35,16.10
2016,09,16,10,36,16.10
2016,09,16,10,37,16.10
2016,09,16,10,38,16.20
2016,09,16,10,39,16.20
2016,09,16,10,40,16.20
2016,09,16,10,41,16.30
2016,09,16,10,42,16.30
2016,09,16,10,43,16.40
2016,09,16,10,44,16.40
2016,09,16,10,45,16.50
2016,09,16,10,46,16.40
2016,09,16,10,47,16.40
2016,09,16,10,48,16.40
2016,09,16,10,49,16.40
2016,09,16,10,50,16.40
2016,09,16,10,51,16.50
2016,09,16,10,52,16.50
2016,09,16,10,53,16.60
2016,09,16,10,54,16.60
2016,09,16,10,55,16.70
2016,09,16,10,56,16.70
2016,09,16,10,57,16.70
2016,09,16,10,58,16.70
2016,09,16,10,59,16.70
2016,09,16,11,00,16.70
2016,09,16,11,01,16.70
2016,09,16,11,02,16.70
2016,09,16,11,03,16.70
2016,09,16,11,04,16.80
2016,09,16,11,05,16.80
2016,09,16,11,06,16.90
2016,09,16,11,07,16.90
2016,09,16,11,08,17.00
2016,09,16,11,09,17.00
2016,09,16,11,10,17.10
2016,09,16,11,11,17.10
2016,09,16,11,12,17.20
2016,09,16,11,13,17.20
2016,09,16,11,14,17.20
2016,09,16,11,15,17.30
2016,09,16,11,16,17.30
2016,09,16,11,17,17.30
2016,09,16,11,18,17.30
2016,09,16,11,19,17.30
2016,09,16,11,20,17.30
2016,09,16,11,21,17.30
2016,09,16,11,22,17.30
2016,09,16,11,23,17.30
2016,09,16,11,24,17.30
2016,09,16,11,25,17.30
2016,09,16,11,26,17.30
2016,09,16,11,27,17.30
2016,09,16,11,28,17.30
2016,09,16,11,29,17.30
2016,09,16,11,30,17.30
2016,09,16,11,31,17.30
2016,09,16,11,32,17.40
2016,09,16,11,33,17.40
2016,09,16,11,34,17.40
2016,09,16,11,35,17.40
2016,09,16,11,36,17.30
2016,09,16,11,37,17.30
2016,09,16,11,38,17.30
2016,09,16,11,39,17.30
2016,09,16,11,40,17.30
2016,09,16,11,41,17.30
2016,09,16,11,42,17.40
2016,09,16,11,43,17.40
2016,09,16,11,44,17.40
2016,09,16,11,45,17.40
2016,09,16,11,46,17.50
2016,09,16,11,47,17.50
2016,09,16,11,48,17.50
2016,09,16,11,49,17.50
2016,09,16,11,50,17.50
2016,09,16,11,51,17.40
2016,09,16,11,52,17.40
2016,09,16,11,53,17.30
2016,09,16,11,54,17.30
2016,09,16,11,55,17.30
2016,09,16,11,56,17.30
2016,09,16,11,57,17.30
2016,09,16,11,58,17.30
2016,09,16,11,59,17.30
2016,09,16,12,00,17.30
2016,09,16,12,01,17.30
2016,09,16,12,02,17.20
2016,09,16,12,03,17.20
2016,09,16,12,04,17.20
2016,09,16,12,05,17.20
2016,09,16,12,06,17.20
2016,09,16,12,07,17.20
2016,09,16,12,08,17.20
2016,09,16,12,09,17.20
2016,09,16,12,10,17.20
2016,09,16,12,11,17.20
2016,09,16,12,12,17.20
2016,09,16,12,13,17.20
2016,09,16,12,14,17.30
2016,09,16,12,15,17.30
2016,09,16,12,16,17.20
2016,09,16,12,17,17.20
2016,09,16,12,18,17.20
2016,09,16,12,19,17.10
2016,09,16,12,20,17.10
2016,09,16,12,21,17.10
2016,09,16,12,22,17.10
2016,09,16,12,23,17.10
2016,09,16,12,24,17.10
2016,09,16,12,25,17.10
2016,09,16,12,26,17.10
2016,09,16,12,27,17.10
2016,09,16,12,28,17.10
2016,09,16,12,29,17.10
2016,09,16,12,30,17.10
2016,09,16,12,31,17.10
2016,09,16,12,32,17.10
2016,09,16,12,33,17.10
2016,09,16,12,34,17.10
2016,09,16,12,35,17.10
2016,09,16,12,36,17.10
2016,09,16,12,37,17.10
2016,09,16,12,38,17.20
2016,09,16,12,39,17.20
2016,09,16,12,40,17.20
2016,09,16,12,41,17.20
2016,09,16,12,42,17.20
2016,09,16,12,43,17.20
2016,09,16,12,44,17.20
2016,09,16,12,45,17.20
2016,09,16,12,46,17.20
2016,09,16,12,47,17.20
2016,09,16,12,48,17.20
2016,09,16,12,49,17.20
2016,09,16,12,50,17.30
2016,09,16,12,51,17.30
2016,09,16,12,52,17.40
2016,09,16,12,53,17.40
2016,09,16,12,54,17.50
2016,09,16,12,55,17.50
2016,09,16,12,56,17.50
2016,09,16,12,57,17.50
2016,09,16,12,58,17.50
2016,09,16,12,59,17.50
2016,09,16,13,00,17.50
2016,09,16,13,01,17.60
2016,09,16,13,02,17.60
2016,09,16,13,03,17.60
2016,09,16,13,04,17.70
2016,09,16,13,05,17.70
2016,09,16,13,06,17.80
2016,09,16,13,07,17.80
2016,09,16,13,08,17.80
2016,09,16,13,09,17.80
2016,09,16,13,10,17.80
2016,09,16,13,11,17.80
2016,09,16,13,12,17.90
2016,09,16,13,13,17.90
2016,09,16,13,14,17.90
2016,09,16,13,15,17.90
2016,09,16,13,16,17.90
2016,09,16,13,17,17.90
2016,09,16,13,18,17.90
2016,09,16,13,19,17.90
2016,09,16,13,20,17.90
2016,09,16,13,21,18.00
2016,09,16,13,22,18.00
2016,09,16,13,23,18.10
2016,09,16,13,24,18.10
2016,09,16,13,25,18.10
2016,09,16,13,26,18.20
2016,09,16,13,27,18.20
2016,09,16,13,28,18.30
2016,09,16,13,29,18.30
2016,09,16,13,30,18.40
2016,09,16,13,31,18.50
2016,09,16,13,32,18.60
2016,09,16,13,33,18.70
2016,09,16,13,34,18.70
2016,09,16,13,35,18.80
2016,09,16,13,36,18.90
2016,09,16,13,37,18.90
2016,09,16,13,38,19.00
2016,09,16,13,39,19.10
2016,09,16,13,40,19.10
2016,09,16,13,41,19.20
2016,09,16,13,42,19.30
2016,09,16,13,43,19.30
2016,09,16,13,44,19.40
2016,09,16,13,45,19.40
2016,09,16,13,46,19.40
2016,09,16,13,47,19.50
2016,09,16,13,48,19.50
2016,09,16,13,49,19.60
2016,09,16,13,50,19.60
2016,09,16,13,51,19.70
2016,09,16,13,52,19.60
2016,09,16,13,53,19.70
2016,09,16,13,54,19.60
2016,09,16,13,55,19.60
2016,09,16,13,56,19.60
2016,09,16,13,57,19.60
2016,09,16,13,58,19.70
2016,09,16,13,59,19.70
2016,09,16,14,00,19.70
2016,09,16,14,01,19.80
2016,09,16,14,02,19.80
2016,09,16,14,03,19.90
2016,09,16,14,04,19.90
2016,09,16,14,05,19.90
2016,09,16,14,06,19.90
2016,09,16,14,07,19.90
2016,09,16,14,08,19.90
2016,09,16,14,09,19.90
2016,09,16,14,10,19.90
2016,09,16,14,11,19.90
2016,09,16,14,12,19.90
2016,09,16,14,13,20.00
2016,09,16,14,14,20.00
2016,09,16,14,15,20.10
2016,09,16,14,16,20.10
2016,09,16,14,17,20.10
2016,09,16,14,18,20.00
2016,09,16,14,19,20.00
2016,09,16,14,20,20.00
2016,09,16,14,21,20.00
2016,09,16,14,22,19.90
2016,09,16,14,23,19.90
2016,09,16,14,24,19.90
2016,09,16,14,25,19.90
2016,09,16,14,26,19.80
2016,09,16,14,27,19.70
2016,09,16,14,28,19.70
2016,09,16,14,29,19.60
2016,09,16,14,30,19.60
2016,09,16,14,31,19.50
2016,09,16,14,32,19.40
2016,09,16,14,33,19.40
2016,09,16,14,34,19.30
2016,09,16,14,35,19.30
2016,09,16,14,36,19.30
2016,09,16,14,37,19.30
2016,09,16,14,38,19.30
2016,09,16,14,39,19.30
2016,09,16,14,40,19.40
2016,09,16,14,41,19.40
2016,09,16,14,42,19.40
2016,09,16,14,43,19.40
2016,09,16,14,44,19.50
2016,09,16,14,45,19.50
2016,09,16,14,46,19.50
2016,09,16,14,47,19.60
2016,09,16,14,48,19.60
2016,09,16,14,49,19.60
2016,09,16,14,50,19.60
2016,09,16,14,51,19.70
2016,09,16,14,52,19.70
2016,09,16,14,53,19.70
2016,09,16,14,54,19.80
2016,09,16,14,55,19.80
2016,09,16,14,56,19.80
2016,09,16,14,57,19.80
2016,09,16,14,58,19.80
2016,09,16,14,59,19.80
2016,09,16,15,00,19.90
2016,09,16,15,01,19.90
2016,09,16,15,02,19.90
2016,09,16,15,03,19.90
2016,09,16,15,04,19.90
2016,09,16,15,05,19.90
2016,09,16,15,06,19.90
2016,09,16,15,07,19.90
2016,09,16,15,08,19.90
2016,09,16,15,09,19.90
2016,09,16,15,10,19.90
2016,09,16,15,11,19.90
2016,09,16,15,12,19.90
2016,09,16,15,13,19.90
2016,09,16,15,14,19.90
2016,09,16,15,15,19.90
2016,09,16,15,16,19.90
2016,09,16,15,17,20.00
2016,09,16,15,18,20.00
2016,09,16,15,19,20.00
2016,09,16,15,20,20.10
2016,09,16,15,21,20.00
2016,09,16,15,22,20.00
2016,09,16,15,23,20.00
2016,09,16,15,24,20.00
2016,09,16,15,25,19.90
2016,09,16,15,26,19.90
2016,09,16,15,27,19.90
2016,09,16,15,28,19.90
2016,09,16,15,29,19.90
2016,09,16,15,30,19.90
2016,09,16,15,31,19.90
2016,09,16,15,32,19.80
2016,09,16,15,33,19.90
2016,09,16,15,34,19.80
2016,09,16,15,35,19.80
2016,09,16,15,36,19.80
2016,09,16,15,37,19.90
2016,09,16,15,38,19.90
2016,09,16,15,39,19.90
2016,09,16,15,40,19.90
2016,09,16,15,41,19.90
2016,09,16,15,42,19.90
2016,09,16,15,43,19.90
2016,09,16,15,44,19.90
2016,09,16,15,45,19.90
2016,09,16,15,46,19.90
2016,09,16,15,47,19.90
2016,09,16,15,48,19.90
2016,09,16,15,49,19.90
2016,09,16,15,50,19.90
2016,09,16,15,51,19.80
2016,09,16,15,52,19.80
2016,09,16,15,53,19.70
2016,09,16,15,54,19.70
2016,09,16,15,55,19.70
2016,09,16,15,56,19.70
2016,09,16,15,57,19.80
2016,09,16,15,58,19.80
2016,09,16,15,59,19.80
2016,09,16,16,00,19.80
2016,09,16,16,01,19.80
2016,09,16,16,02,19.80
2016,09,16,16,03,19.80
2016,09,16,16,04,19.80
2016,09,16,16,05,19.80
2016,09,16,16,06,19.70
2016,09,16,16,07,19.70
2016,09,16,16,08,19.60
2016,09,16,16,09,19.60
2016,09,16,16,10,19.50
2016,09,16,16,11,19.40
2016,09,16,16,12,19.30
2016,09,16,16,13,19.30
2016,09,16,16,14,19.30
2016,09,16,16,15,19.20
2016,09,16,16,16,19.20
2016,09,16,16,17,19.10
2016,09,16,16,18,19.10
2016,09,16,16,19,19.10
2016,09,16,16,20,19.10
2016,09,16,16,21,19.00
2016,09,16,16,22,18.90
2016,09,16,16,23,18.90
2016,09,16,16,24,18.80
2016,09,16,16,25,18.80
2016,09,16,16,26,18.80
2016,09,16,16,27,18.70
2016,09,16,16,28,18.70
2016,09,16,16,29,18.70
2016,09,16,16,30,18.60
2016,09,16,16,31,18.60
2016,09,16,16,32,18.60
2016,09,16,16,33,18.60
2016,09,16,16,34,18.60
2016,09,16,16,35,18.60
2016,09,16,16,36,18.60
2016,09,16,16,37,18.60
2016,09,16,16,38,18.60
2016,09,16,16,39,18.50
2016,09,16,16,40,18.50
2016,09,16,16,41,18.40
2016,09,16,16,42,18.40
2016,09,16,16,43,18.40
2016,09,16,16,44,18.40
2016,09,16,16,45,18.40
2016,09,16,16,46,18.40
2016,09,16,16,47,18.30
2016,09,16,16,48,18.30
2016,09,16,16,49,18.30
2016,09,16,16,50,18.30
2016,09,16,16,51,18.30
2016,09,16,16,52,18.30
2016,09,16,16,53,18.30
2016,09,16,16,54,18.30
2016,09,16,16,55,18.20
2016,09,16,16,56,18.20
2016,09,16,16,57,18.20
2016,09,16,16,58,18.20
2016,09,16,16,59,18.20
2016,09,16,17,00,18.20
2016,09,16,17,01,18.20
2016,09,16,17,02,18.20
2016,09,16,17,03,18.20
2016,09,16,17,04,18.10
2016,09,16,17,05,18.10
2016,09,16,17,06,18.10
2016,09,16,17,07,18.00
2016,09,16,17,08,18.00
2016,09,16,17,09,17.90
2016,09,16,17,10,17.90
2016,09,16,17,11,17.90
2016,09,16,17,12,17.90
2016,09,16,17,13,17.90
2016,09,16,17,14,17.90
2016,09,16,17,15,17.80
2016,09,16,17,16,17.80
2016,09,16,17,17,17.80
2016,09,16,17,18,17.80
2016,09,16,17,19,17.80